GFSNIL_con_3kmhel_276.txt.gz
Helicity
11 18 25 46 64 83 94 94 64 64 47 42 36 32 49 70 80 77 81 93 93 88
1 21 52 62 89 79 99 78 59 44 40 26 21 36 47 44 44 47 55 63 82 83
14 47 70 88 80 74 65 64 59 51 37 21 18 16 23 26 31 43 50 54 56 57
36 86 91 87 74 70 63 61 54 47 33 38 26 12 22 24 37 47 47 49 54 53
74 78 73 59 54 48 47 36 43 44 34 33 14 15 28 38 41 60 55 44 44 53
84 83 60 52 48 38 47 34 27 37 45 41 27 25 25 34 38 58 63 54 42 42
119 96 62 52 55 60 57 50 33 27 33 38 39 39 47 68 52 56 58 55 53 48
155 128 96 78 58 49 56 65 54 58 52 61 55 61 104 97 71 71 64 56 52 52
235 185 131 119 108 67 49 49 69 73 72 85 68 78 83 85 71 73 86 76 53 66
249 214 172 171 139 107 82 76 75 78 95 91 87 97 93 85 63 65 77 80 56 63
267 224 211 194 140 106 93 80 80 71 83 85 67 71 76 85 75 62 64 72 39 45
291 262 245 213 144 125 101 88 67 63 69 81 63 75 70 91 77 69 65 88 77 60
362 250 181 180 170 151 87 54 54 46 57 71 77 64 63 82 75 62 53 69 69 73
268 174 123 109 97 101 78 72 61 62 76 75 64 46 41 59 59 53 55 56 52 56

GFSNIL_con_3kmhel_279.txt.gz
Helicity
2 18 31 50 71 83 96 110 91 78 57 46 39 44 60 62 66 69 71 81 83 77
4 35 42 55 77 88 88 86 70 47 36 27 24 41 50 51 52 53 58 68 69 66
-18 -2 50 72 63 62 71 76 75 52 29 12 7 9 20 31 42 51 47 45 65 65
22 53 74 76 65 65 72 74 64 48 20 8 -0 -0 10 19 20 28 54 53 54 63
76 85 96 93 91 86 78 66 57 55 44 32 10 3 13 22 21 38 51 43 46 49
118 130 103 88 82 76 74 71 62 60 47 39 24 25 30 37 35 43 42 46 47 44
176 147 138 108 89 80 72 86 70 53 49 42 43 43 44 50 53 45 40 41 43 43
136 137 145 141 123 101 77 66 72 71 55 51 51 52 71 71 72 65 55 46 37 22
166 191 161 136 130 146 125 95 84 77 97 91 70 77 85 91 84 80 70 78 64 43
188 214 207 181 152 128 146 143 111 108 105 83 81 87 91 100 89 74 74 68 72 56
135 221 211 157 176 138 154 166 159 125 98 95 80 68 75 82 95 95 72 59 44 36
115 130 82 111 91 178 153 151 155 122 103 90 74 61 62 82 88 86 72 66 57 48
135 73 132 203 115 151 143 109 128 112 88 68 69 66 64 84 88 64 55 47 43 51
136 257 481 467 266 107 143 119 105 97 90 70 69 64 64 65 69 54 51 47 38 35

GFSNIL_con_3kmhel_285.txt.gz
Helicity
31 7 -7 4 38 51 73 83 100 80 61 41 25 27 34 24 25 37 45 47 53 52
15 16 4 15 44 53 64 68 76 62 41 19 12 18 29 33 29 28 34 44 54 52
42 16 -2 12 45 57 58 59 73 69 54 32 19 12 8 17 24 25 29 36 43 42
35 24 18 23 40 51 45 53 67 68 63 56 47 36 28 20 24 24 28 35 34 36
61 43 36 42 69 89 95 91 81 74 60 52 41 31 30 31 38 36 39 39 39 42
76 74 67 51 66 90 105 86 83 86 73 56 46 41 41 44 47 40 39 43 36 38
110 90 65 55 67 85 101 105 86 88 79 80 68 47 43 50 49 48 52 54 47 48
124 111 114 112 118 130 119 86 81 97 105 94 85 64 62 66 65 56 49 43 48 62
244 232 229 186 142 111 134 127 93 117 117 107 90 105 68 66 71 63 48 42 41 50
376 385 310 139 68 84 98 132 122 118 123 126 97 100 77 69 64 65 58 54 47 53
404 300 300 363 299 305 125 217 239 138 136 123 120 103 78 84 83 76 67 60 67 75
275 203 202 212 189 237 233 239 327 247 170 129 128 109 97 85 81 78 61 62 72 76
101 76 64 67 112 180 242 261 366 338 235 187 109 97 92 67 70 61 53 60 65 65
49 57 66 70 107 186 247 342 367 342 317 332 189 91 71 44 35 51 53 61 59 66

GFSNIL_con_3kmhel_291.txt.gz
Helicity
14 5 17 41 0 4 5 32 47 47 3 8 0 -4 -1 -13 -7 16 9 29 34 58
22 -7 11 9 32 10 18 20 26 37 30 19 6 -8 -16 -16 -2 0 -1 7 9 30
53 49 30 30 14 -5 15 23 45 31 17 21 13 7 2 -6 12 1 -5 -2 35 14
88 62 52 41 35 31 11 38 63 66 51 48 35 31 21 1 47 20 15 25 28 26
78 72 88 85 53 63 76 61 70 95 66 65 55 47 34 27 47 33 38 36 48 25
90 81 55 76 76 97 105 84 82 100 78 56 54 69 64 48 49 41 34 45 38 32
71 64 73 73 132 102 151 104 85 90 87 76 69 62 61 75 64 48 50 50 46 45
86 101 91 131 173 182 187 146 94 69 70 73 71 67 94 88 79 77 71 70 61 34
171 133 142 150 172 157 161 98 155 229 134 94 83 59 163 106 100 95 95 86 67 74
306 297 331 256 196 194 189 210 250 156 171 180 117 123 259 190 107 90 94 102 96 71
194 175 162 159 158 152 177 178 103 107 126 121 135 233 297 183 112 123 126 136 124 95
114 107 97 75 45 50 43 66 88 89 111 126 142 273 257 171 152 122 185 173 160 138
59 61 79 85 64 50 47 60 76 83 103 106 104 230 207 154 155 193 235 205 144 147
76 53 75 48 25 14 21 41 78 91 98 105 135 319 355 307 306 377 384 335 358 291